Location: De Greiden
(52.9496°N, 5.9137°E)
Time: 01:53:40
(UTC+00:00)

H-2A R/B - Pass Details

Date: 24 January 2021
Orbit: 734 x 836 km, 98.2° (Epoch: 26 February)

Event Time Altitude Azimuth Distance (km) Brightness Sun altitude
Rises 17:46:53 0° 153° (SSE) 3,195 5.1 -14.8°
Reaches altitude 10° 17:49:09 10° 150° (SSE) 2,286 4.3 -15.2°
Maximum altitude 17:54:07 64° 70° (ENE) 859 2.0 -15.9°
Drops below altitude 10° 17:59:17 10° 350° (N) 2,367 4.5 -16.7°
Sets 18:01:40 0° 347° (NNW) 3,317 5.3 -17.0°
